Regional Weather Roundup
Issued by NWS Grand Forks, ND

Home | Current Version | Previous Version | Text Only | Print | Product List | Glossary Off
Versions: 1 2 3 4 5 6 7 8 9 10 11 12 13 14 15 16 17 18 19 20 21 22 23 24 25 26 27 28 29 30 31 32 33 34 35 36 37 38 39 40 41 42 43 44 45 46 47 48 49 50

000
ASUS43 KFGF 050010
RWRFGF
PRAIRIE TO PINES  WEATHER ROUNDUP
NATIONAL WEATHER SERVICE EASTERN NORTH DAKOTA/GRAND FORKS ND
700 PM CDT FRI SEP 04 2015

 **SATELLITE DATA USED TO AUGMENT SKY COVER AT AUTOMATED STATIONS**
 *****  WEATHER ACROSS EASTERN NORTH DAKOTA  *****

CITY           SKY/WX    TMP DP  RH WIND       PRES   REMARKS
GRAND FORKS    MOCLDY    74  68  81 N9        29.81S
6HR MIN TEMP:  71; 6HR MAX TEMP:  83; 6HR PCP: TRACE;

GRAND FRKS AFB FAIR      71  66  85 E7        29.82F
GRAND FRKS NWS   N/A     75 N/A N/A S5          N/A
DEVILS LAKE    FAIR      73  64  73 SE9       29.81R
6HR MIN TEMP:  68; 6HR MAX TEMP:  75; 6HR PCP:  0.62;

FARGO          CLOUDY    77  72  84 E5        29.82S
WAHPETON ARPT  FAIR      81  64  57 SE8       29.82F
$$

 ***** WEATHER ACROSS CENTRAL AND WESTERN NORTH DAKOTA  *****

CITY           SKY/WX    TMP DP  RH WIND       PRES   REMARKS
BISMARCK       SUNNY     87  66  49 N5        29.78S
6HR MIN TEMP:  78; 6HR MAX TEMP:  89; 6HR PCP: TRACE;

MINOT          CLOUDY    67  58  72 N14       29.86R
6HR MIN TEMP:  67; 6HR MAX TEMP:  79;

JAMESTOWN      FAIR      78  68  71 SE12      29.82R
6HR MIN TEMP:  73; 6HR MAX TEMP:  82; 6HR PCP: TRACE;

MINOT AFB      CLOUDY    67  61  81 N13       29.86R
GARRISON         N/A     72  61  68 N13       29.84R
WILLISTON      SUNNY     74  57  55 NE10      29.87R
6HR MIN TEMP:  66; 6HR MAX TEMP:  78;

DICKINSON      SUNNY     80  63  55 NE14      29.81S
6HR MIN TEMP:  68; 6HR MAX TEMP:  80;

HETTINGER      SUNNY     90  54  29 SE7       29.79S
6HR MIN TEMP:  83; 6HR MAX TEMP:  91;

$$

 *****  OTHER AIRPORT OBSERVATIONS IN OUR AREA  *****

CITY           SKY/WX    TMP DP  RH WIND       PRES   REMARKS
WALHALLA       FAIR      68  68 100 MISG      29.85R
GRAFTON AIRPOR FAIR      68  68 100 S8        29.82R
VALLEY CITY AR MOCLDY    77  75  94 SE8       29.84R
CANDO          NOT AVBL
CAVALIER APRT  FAIR      66  66 100 SW7       29.82R
GWINNER          N/A     82  82 100 SE10      29.81F HX  97
SHEYENNE NWR     N/A     77  72  85 E6        29.95S
ROLLA          FOG       63  63 100 N13       29.90R VSB 3/4
 ***** THE ABOVE OBSERVATIONS ARE NON NWS ARE NOT QUALITY
       CONTROLLED AND MAY MIS-REPORT RAIN FOR SNOW...
$$

  *****  WEATHER ACROSS NORTHERN MINNESOTA  *****

CITY           SKY/WX    TMP DP  RH WIND       PRES   REMARKS
FLAG ISLAND    MOCLDY    73  70  88 S6        29.83S
WARROAD        CLOUDY    75  72  88 SE20G26   29.87R
ROSEAU         LGT RAIN  75  70  83 S10       29.84F
HALLOCK        LGT RAIN  70  68  94 SE10      29.80F
THF RVR FALLS  CLOUDY    75  72  88 S10       29.84R
6HR MIN TEMP:  73; 6HR MAX TEMP:  82; 6HR PCP:  0.02;

BAUDETTE       MOCLDY    80  70  71 S9        29.86S
6HR MIN TEMP:  80; 6HR MAX TEMP:  86;

WASKISH        FAIR      79  72  78 CALM      29.87F
CROOKSTON      FAIR      75  72  88 S6        29.84R
STEPHEN NDAWN    N/A     70  68  94 W3          N/A
GREENBUSH NDAW   N/A     70  68  94 NW1         N/A
$$
  *****  WEATHER ACROSS CENTRAL AND WEST MINNESOTA  *****

CITY           SKY/WX    TMP DP  RH WIND       PRES   REMARKS
FOSSTON        LGT RAIN  73  70  88 CALM      29.87F
BEMIDJI        MOCLDY    77  72  85 E7        29.88F
PARK RAPIDS    MOCLDY    80  72  76 E3        29.89R
6HR MIN TEMP:  78; 6HR MAX TEMP:  85; 6HR PCP:  0.02;

ELBOW LAKE     FAIR      79  73  80 S8        29.86R
6HR MIN TEMP:  76; 6HR MAX TEMP:  83;

WADENA         MOCLDY    79  70  73 SE7       29.88R
DETROIT LAKES  FAIR      77  72  83 CALM      29.89R
MOORHEAD       FAIR      79  73  83 E3        29.83S
FERGUS FALLS   FAIR      81  72  74 SE5       29.83F
MORRIS MN      FAIR      81  72  74 S8        29.85S
STAPLES        RAIN      81  72  74 CALM      29.88S
$$
  *****  WEATHER ELSEWHERE ACROSS MINNESOTA  *****

CITY           SKY/WX    TMP DP  RH WIND       PRES   REMARKS
DULUTH         FAIR      71  63  75 E12       29.97S
6HR MIN TEMP:  71; 6HR MAX TEMP:  77;

INTRNTL FALLS  MOCLDY    80  70  71 SE8       29.88F
6HR MIN TEMP:  80; 6HR MAX TEMP:  86;

ELY            FAIR      75  63  64 SE12      29.97F
CLOQUET        FAIR      66  61  82 E10G17    29.96S
WHEATON        FAIR      79  70  73 SE14      29.83F
BRAINERD       FAIR      81  72  74 SE5       29.90R
6HR MIN TEMP:  81; 6HR MAX TEMP:  86;

HIBBING        FAIR      76  68  76 SE9       29.93F
6HR MIN TEMP:  76; 6HR MAX TEMP:  83;

ALEXANDRIA     CLOUDY    78  72  81 S8        29.89S
6HR MIN TEMP:  78; 6HR MAX TEMP:  86; 6HR PCP:  0.01;

SAINT CLOUD    FAIR      83  74  74 SE8       29.88S
6HR MIN TEMP:  82; 6HR MAX TEMP:  89;

MINNEAPOLIS    MOCLDY    85  72  65 SE10      29.90S HX  91
6HR MIN TEMP:  84; 6HR MAX TEMP:  89;

$$

  *****  WEATHER ACROSS SOUTH DAKOTA  *****

CITY           SKY/WX    TMP DP  RH WIND       PRES   REMARKS
SIOUX FALLS    MOCLDY    82  71  69 SE17G26   29.84S
6HR MIN TEMP:  73; 6HR MAX TEMP:  83; 6HR PCP:  0.01;

BROOKINGS      FAIR      79  70  73 SE17      29.86R
WATERTOWN      FAIR      80  67  64 S13       29.84R
6HR MIN TEMP:  76; 6HR MAX TEMP:  85;

HURON          PTSUNNY   83  71  67 SE13G22   29.76R
6HR MIN TEMP:  83; 6HR MAX TEMP:  89;

SISSETON         N/A     83  71  67 SE12      29.80F
ABERDEEN       PTSUNNY   85  71  63 SE6       29.78R HX  90
6HR MIN TEMP:  81; 6HR MAX TEMP:  88;

MITCHELL       MOSUNNY   86  73  65 SE12      29.76R HX  93
PIERRE         MOSUNNY   87  66  49 E9        29.73R
6HR MIN TEMP:  85; 6HR MAX TEMP:  92;

MOBRIDGE       SUNNY     88  66  48 E8        29.75R HX  90
RAPID CITY     MOSUNNY   86  63  45 N9        29.78S
6HR MIN TEMP:  83; 6HR MAX TEMP:  90;

$$

  *****  SOME WEATHER IN NEARBY STATES *****

CITY           SKY/WX    TMP DP  RH WIND       PRES   REMARKS
GLASGOW MT     CLOUDY    69  53  56 N15       29.88R
6HR MIN TEMP:  69; 6HR MAX TEMP:  77; 6HR PCP: TRACE;

GREAT FALLS MT CLOUDY    51  49  92 N9        30.00S
6HR MIN TEMP:  50; 6HR MAX TEMP:  52; 6HR PCP:  0.02;

CHEYENNE WY    CLOUDY    71  46  40 W10       30.04R
6HR MIN TEMP:  71; 6HR MAX TEMP:  87; 6HR PCP: TRACE;

SCOTTSBLUFF NE CLOUDY    82  51  34 E6        29.86S
6HR MIN TEMP:  82; 6HR MAX TEMP:  93;

OMAHA NE       MOCLDY    86  70  58 SE20      29.86R HX  90
6HR MIN TEMP:  85; 6HR MAX TEMP:  90;

DES MOINES IA  FAIR      87  71  58 S7        29.93S HX  93
6HR MIN TEMP:  86; 6HR MAX TEMP:  91;

DAVENPORT IA   FAIR      85  71  63 S5        29.97S HX  90
6HR MIN TEMP:  85; 6HR MAX TEMP:  90;

CHICAGO IL     FAIR      73  67  81 E10       30.03R
6HR MIN TEMP:  73; 6HR MAX TEMP:  85;

EAU CLAIRE WI  FAIR      81  71  71 E8        29.96R
6HR MIN TEMP:  81; 6HR MAX TEMP:  86;

LA CROSSE WI   FAIR      85  70  60 SE7       29.95R
6HR MIN TEMP:  85; 6HR MAX TEMP:  89;

$$

  *****  SOME NATIONAL WEATHER *****

CITY           SKY/WX    TMP DP  RH WIND       PRES   REMARKS
LA GUARDIA NY  FAIR      78  64  61 SE9       30.13R
6HR MIN TEMP:  78; 6HR MAX TEMP:  84;

RALEIGH NC     MOCLDY    77  70  79 CALM      30.02R
6HR MIN TEMP:  77; 6HR MAX TEMP:  92; 6HR PCP: TRACE;

ATLANTA GA     FAIR      82  66  58 CALM      30.00R
6HR MIN TEMP:  80; 6HR MAX TEMP:  92; 6HR PCP: TRACE;

NEW ORLEANS LA MOCLDY    81  72  74 S7        29.96S
6HR MIN TEMP:  78; 6HR MAX TEMP:  89; 6HR PCP: TRACE;

OKLAHOMA CITY  FAIR      90  66  45 SE13      29.91S HX  92
6HR MIN TEMP:  90; 6HR MAX TEMP:  94;

ALBUQUERQUE NM CLOUDY    69  57  65 SE3       30.13S
6HR MIN TEMP:  68; 6HR MAX TEMP:  78; 6HR PCP:  0.02;

SALT LAKE CITY PTSUNNY   87  32  14 S22G38    29.71F
6HR MIN TEMP:  83; 6HR MAX TEMP:  88;




USA.gov is the U.S. government's official web portal to all federal, state and local government web resources and services.